GFSSW_500_temp_000.txt.gz
Temp
-12 -12 -12 -12 -11 -12 -12 -11 -11 -11 -11 -11 -11 -10 -10 -10 -11 -11 -11 -12 -11 -11 -10 -10 -10 -10 -10 -10 -10 -10 -10 -10 -11 -11 -11 -10 -11 -11 -11 -10 -10 -10 -10 -9 -10
-12 -12 -12 -11 -12 -12 -11 -11 -11 -11 -11 -11 -11 -11 -10 -10 -11 -11 -12 -12 -11 -11 -11 -10 -10 -10 -10 -10 -10 -10 -11 -11 -11 -11 -11 -11 -11 -11 -11 -10 -10 -10 -10 -10 -10
-11 -11 -12 -12 -11 -11 -11 -12 -12 -12 -11 -11 -11 -11 -11 -11 -11 -12 -11 -12 -11 -11 -11 -10 -10 -10 -10 -10 -10 -10 -11 -11 -11 -11 -11 -11 -12 -12 -11 -11 -10 -10 -10 -10 -10
-10 -10 -11 -11 -11 -11 -11 -12 -12 -12 -12 -11 -11 -12 -11 -11 -11 -12 -12 -11 -11 -11 -11 -11 -10 -11 -10 -10 -11 -10 -11 -11 -11 -11 -11 -12 -12 -12 -12 -12 -11 -11 -10 -11 -11
-10 -10 -10 -10 -10 -10 -11 -11 -11 -11 -11 -11 -11 -12 -10 -9 -10 -11 -11 -11 -10 -11 -11 -11 -10 -11 -11 -11 -11 -10 -11 -11 -11 -12 -12 -12 -12 -12 -13 -12 -12 -11 -11 -11 -11
-9 -9 -9 -9 -10 -10 -10 -10 -10 -10 -10 -10 -10 -10 -9 -9 -10 -10 -10 -9 -9 -10 -10 -11 -11 -11 -11 -10 -10 -11 -11 -11 -11 -12 -12 -12 -12 -13 -13 -12 -12 -11 -11 -11 -11
-9 -9 -9 -9 -9 -10 -10 -10 -10 -10 -10 -10 -10 -9 -9 -10 -9 -9 -9 -9 -9 -10 -10 -11 -11 -10 -10 -9 -10 -10 -11 -11 -12 -12 -12 -12 -13 -13 -13 -12 -12 -12 -12 -12 -12
-10 -10 -10 -10 -10 -10 -9 -9 -9 -9 -9 -9 -9 -9 -8 -9 -9 -9 -9 -9 -8 -9 -9 -10 -10 -10 -9 -10 -10 -10 -10 -11 -12 -12 -12 -12 -12 -12 -13 -12 -12 -12 -12 -11 -12
-10 -10 -10 -10 -10 -10 -10 -10 -9 -9 -9 -9 -9 -8 -8 -9 -9 -9 -9 -9 -9 -9 -9 -9 -9 -9 -9 -10 -11 -10 -11 -12 -12 -12 -12 -12 -12 -12 -13 -12 -12 -12 -12 -12 -11
-10 -9 -10 -10 -10 -10 -10 -9 -9 -9 -9 -9 -9 -9 -8 -9 -10 -10 -9 -10 -9 -10 -10 -10 -9 -9 -10 -10 -10 -11 -12 -12 -12 -12 -11 -12 -12 -12 -12 -12 -12 -12 -12 -12 -11
-10 -10 -10 -9 -10 -10 -10 -10 -10 -9 -9 -9 -9 -9 -8 -9 -9 -10 -10 -10 -9 -10 -10 -10 -10 -9 -10 -10 -11 -12 -12 -12 -12 -12 -11 -12 -11 -11 -11 -11 -11 -12 -12 -12 -12
-10 -10 -10 -10 -10 -10 -10 -10 -10 -9 -9 -9 -9 -9 -9 -9 -9 -9 -9 -9 -9 -9 -10 -10 -9 -10 -11 -11 -11 -11 -11 -11 -12 -11 -11 -11 -11 -11 -11 -11 -11 -12 -12 -12 -12
-10 -10 -10 -10 -10 -11 -10 -10 -10 -10 -9 -9 -9 -9 -9 -9 -9 -9 -9 -9 -9 -9 -10 -9 -11 -11 -11 -11 -11 -11 -11 -11 -11 -11 -11 -11 -10 -11 -11 -11 -11 -12 -12 -12 -12
-10 -10 -10 -10 -11 -11 -11 -11 -11 -10 -10 -9 -9 -9 -10 -9 -9 -10 -9 -9 -9 -9 -10 -10 -11 -11 -11 -11 -11 -11 -11 -11 -11 -11 -11 -11 -11 -11 -11 -11 -12 -12 -12 -12 -12
-11 -10 -10 -10 -10 -12 -11 -11 -11 -11 -11 -9 -9 -9 -9 -9 -9 -10 -10 -9 -9 -9 -10 -9 -10 -10 -11 -11 -12 -11 -11 -11 -11 -11 -11 -11 -11 -11 -11 -12 -12 -12 -12 -12 -12
-11 -11 -11 -10 -10 -12 -12 -12 -12 -12 -10 -9 -9 -9 -9 -9 -10 -10 -9 -10 -10 -10 -10 -10 -10 -11 -11 -12 -11 -11 -10 -10 -11 -11 -11 -11 -12 -12 -13 -12 -12 -12 -12 -12 -12
-11 -11 -11 -11 -11 -12 -12 -13 -13 -12 -9 -9 -9 -9 -10 -10 -10 -10 -9 -9 -9 -9 -9 -10 -9 -10 -11 -11 -10 -10 -10 -11 -11 -12 -12 -12 -12 -12 -13 -12 -12 -12 -12 -12 -13
-15 -13 -12 -12 -12 -12 -13 -13 -13 -9 -10 -10 -10 -10 -10 -10 -10 -10 -10 -9 -9 -10 -10 -10 -10 -10 -10 -10 -10 -11 -11 -11 -12 -12 -13 -13 -12 -13 -13 -13 -12 -12 -13 -12 -12
-22 -20 -16 -13 -13 -14 -14 -14 -10 -10 -11 -12 -11 -11 -10 -10 -10 -10 -10 -9 -9 -10 -10 -10 -10 -10 -10 -11 -11 -11 -10 -11 -10 -11 -12 -13 -13 -13 -14 -13 -12 -13 -13 -12 -12
-23 -23 -21 -19 -17 -17 -16 -13 -11 -11 -12 -12 -12 -12 -11 -11 -11 -10 -10 -9 -9 -10 -10 -10 -10 -10 -11 -11 -11 -11 -10 -10 -10 -10 -13 -14 -13 -14 -14 -14 -13 -13 -13 -13 -12
-23 -23 -23 -22 -21 -21 -19 -12 -12 -13 -13 -13 -12 -13 -12 -12 -11 -11 -11 -10 -10 -10 -10 -11 -11 -11 -11 -11 -11 -10 -10 -10 -10 -11 -13 -14 -13 -14 -14 -13 -13 -13 -13 -13 -13
-23 -23 -24 -24 -23 -22 -21 -13 -15 -14 -14 -13 -13 -13 -13 -14 -12 -12 -11 -11 -11 -11 -10 -10 -11 -11 -10 -11 -11 -11 -10 -10 -10 -11 -11 -13 -13 -14 -14 -13 -13 -14 -13 -13 -13
-25 -26 -25 -26 -25 -24 -22 -19 -18 -15 -15 -15 -14 -14 -14 -14 -14 -13 -12 -11 -11 -11 -11 -11 -11 -11 -11 -11 -11 -10 -10 -10 -10 -11 -12 -13 -13 -13 -13 -13 -13 -14 -13 -13 -13
-27 -27 -27 -26 -26 -26 -24 -23 -21 -17 -17 -16 -15 -13 -14 -14 -14 -15 -13 -12 -12 -12 -12 -12 -12 -11 -10 -10 -11 -10 -10 -10 -10 -10 -10 -11 -13 -14 -13 -13 -13 -13 -13 -13 -13
-27 -27 -27 -27 -26 -26 -26 -25 -23 -20 -19 -19 -16 -16 -16 -15 -15 -15 -14 -13 -13 -12 -13 -12 -12 -11 -11 -12 -11 -11 -11 -11 -10 -10 -11 -12 -12 -13 -14 -14 -13 -13 -13 -13 -13
-28 -28 -28 -27 -27 -27 -26 -25 -25 -23 -21 -22 -19 -19 -19 -16 -17 -16 -16 -14 -13 -13 -13 -13 -12 -12 -11 -12 -11 -11 -11 -10 -10 -10 -10 -11 -12 -13 -14 -14 -13 -13 -13 -12 -13
-27 -28 -27 -27 -27 -27 -26 -26 -25 -25 -24 -23 -22 -21 -19 -19 -17 -16 -15 -14 -13 -13 -13 -13 -12 -12 -11 -12 -12 -11 -10 -10 -10 -10 -10 -10 -11 -13 -13 -13 -13 -13 -13 -13 -12

GFSSW_500_temp_003.txt.gz
Temp
-10 -10 -10 -11 -12 -12 -11 -11 -11 -11 -10 -10 -10 -10 -10 -10 -10 -10 -10 -10 -10 -11 -10 -10 -11 -10 -10 -10 -10 -10 -10 -10 -11 -11 -11 -12 -12 -12 -11 -11 -10 -10 -10 -10 -10
-10 -10 -11 -11 -12 -12 -12 -11 -12 -12 -12 -12 -11 -10 -10 -10 -10 -10 -10 -11 -11 -11 -11 -10 -11 -10 -11 -11 -11 -10 -10 -11 -11 -11 -10 -10 -12 -12 -13 -12 -11 -10 -11 -11 -10
-10 -10 -10 -11 -12 -12 -12 -12 -12 -12 -12 -12 -11 -11 -10 -11 -11 -11 -11 -11 -11 -12 -11 -10 -10 -10 -11 -11 -11 -11 -10 -11 -11 -11 -11 -11 -11 -12 -11 -12 -13 -12 -11 -11 -11
-10 -10 -10 -10 -10 -12 -12 -12 -12 -12 -12 -12 -12 -12 -11 -11 -11 -10 -11 -11 -12 -12 -11 -10 -11 -11 -11 -12 -11 -11 -10 -11 -11 -11 -11 -11 -12 -11 -12 -12 -12 -12 -12 -11 -11
-10 -10 -10 -10 -10 -12 -12 -12 -12 -12 -12 -12 -12 -11 -11 -11 -11 -11 -11 -11 -11 -11 -11 -11 -11 -11 -11 -11 -11 -10 -10 -11 -11 -10 -11 -11 -11 -11 -12 -13 -12 -12 -12 -12 -12
-10 -10 -10 -10 -10 -11 -11 -11 -11 -11 -12 -11 -11 -11 -11 -10 -11 -12 -11 -11 -11 -10 -11 -11 -11 -11 -12 -11 -11 -10 -10 -10 -10 -11 -11 -10 -11 -11 -12 -12 -12 -13 -12 -13 -12
-10 -10 -10 -10 -11 -10 -10 -11 -11 -11 -11 -11 -11 -11 -10 -10 -11 -11 -10 -10 -10 -10 -10 -10 -10 -11 -11 -11 -11 -10 -10 -11 -10 -10 -10 -11 -11 -12 -11 -12 -12 -13 -12 -12 -11
-9 -10 -10 -10 -10 -10 -10 -10 -10 -11 -11 -11 -10 -10 -9 -10 -11 -10 -10 -10 -10 -10 -9 -10 -10 -10 -10 -10 -10 -10 -10 -10 -11 -12 -12 -11 -11 -12 -12 -12 -13 -12 -12 -12 -12
-9 -9 -9 -10 -10 -10 -10 -10 -10 -10 -11 -10 -10 -9 -9 -9 -10 -10 -10 -9 -9 -9 -9 -9 -9 -9 -10 -10 -10 -10 -10 -11 -12 -12 -12 -11 -11 -12 -13 -13 -12 -12 -12 -12 -12
-9 -9 -9 -10 -10 -10 -10 -10 -10 -10 -10 -10 -9 -9 -9 -9 -10 -10 -10 -10 -9 -9 -9 -9 -9 -9 -10 -10 -9 -11 -12 -12 -12 -12 -12 -13 -12 -13 -12 -12 -12 -12 -12 -12 -12
-10 -10 -10 -10 -10 -10 -10 -10 -10 -9 -9 -9 -9 -9 -9 -9 -9 -9 -9 -10 -9 -9 -9 -10 -10 -9 -10 -10 -11 -11 -12 -12 -12 -12 -12 -13 -12 -11 -13 -12 -11 -11 -12 -12 -11
-10 -10 -10 -10 -10 -11 -10 -10 -10 -10 -9 -9 -9 -9 -9 -9 -9 -9 -9 -9 -9 -9 -10 -10 -9 -9 -10 -11 -10 -11 -12 -12 -12 -12 -13 -13 -11 -11 -11 -11 -11 -11 -11 -11 -11
-10 -10 -10 -10 -10 -11 -11 -10 -10 -11 -10 -9 -9 -9 -10 -10 -9 -9 -9 -9 -9 -10 -10 -10 -10 -10 -11 -11 -11 -11 -10 -11 -12 -13 -13 -12 -10 -12 -12 -11 -11 -11 -11 -11 -11
-10 -10 -10 -10 -11 -11 -11 -11 -11 -11 -11 -9 -9 -9 -9 -10 -9 -10 -9 -9 -9 -9 -10 -10 -11 -11 -11 -11 -11 -12 -11 -11 -11 -13 -13 -13 -11 -13 -11 -12 -11 -11 -11 -11 -11
-11 -11 -10 -10 -11 -11 -11 -12 -12 -12 -12 -10 -10 -9 -9 -9 -9 -10 -10 -9 -9 -9 -10 -9 -10 -10 -10 -10 -11 -10 -11 -12 -12 -11 -11 -12 -11 -12 -13 -13 -12 -11 -12 -11 -11
-13 -13 -12 -11 -11 -11 -11 -12 -13 -13 -11 -10 -10 -9 -10 -10 -9 -10 -10 -10 -10 -10 -10 -10 -10 -11 -10 -11 -11 -11 -11 -11 -12 -11 -10 -12 -12 -12 -12 -13 -12 -13 -12 -11 -12
-18 -18 -15 -13 -13 -12 -12 -13 -13 -13 -10 -10 -10 -9 -9 -10 -10 -10 -10 -10 -9 -9 -9 -10 -10 -10 -10 -10 -11 -10 -10 -11 -11 -13 -12 -12 -12 -12 -11 -13 -12 -12 -13 -12 -12
-22 -21 -20 -19 -16 -15 -14 -14 -14 -10 -10 -12 -12 -11 -10 -10 -10 -10 -10 -10 -10 -10 -10 -10 -10 -10 -9 -10 -10 -9 -10 -11 -13 -12 -11 -12 -12 -12 -12 -12 -12 -12 -12 -12 -12
-24 -23 -23 -23 -22 -20 -19 -15 -11 -10 -11 -14 -15 -12 -10 -11 -10 -11 -10 -10 -10 -9 -10 -10 -10 -10 -10 -10 -11 -10 -10 -10 -12 -12 -12 -12 -12 -13 -12 -13 -12 -12 -12 -13 -12
-23 -23 -23 -24 -24 -23 -22 -16 -12 -12 -13 -16 -15 -16 -15 -11 -11 -11 -11 -10 -10 -10 -10 -12 -11 -11 -10 -10 -11 -11 -11 -11 -11 -11 -13 -12 -12 -12 -12 -13 -13 -13 -12 -13 -12
-22 -22 -23 -24 -24 -24 -23 -16 -15 -14 -17 -16 -17 -17 -16 -15 -14 -12 -11 -10 -10 -10 -10 -11 -12 -12 -12 -10 -10 -10 -10 -10 -11 -13 -12 -12 -12 -12 -13 -13 -13 -13 -13 -13 -13
-24 -24 -24 -24 -25 -23 -22 -20 -19 -16 -19 -18 -15 -15 -15 -15 -14 -15 -12 -11 -11 -11 -10 -10 -11 -12 -10 -10 -10 -10 -10 -11 -11 -10 -12 -12 -11 -12 -12 -14 -14 -13 -12 -12 -13
-25 -26 -26 -25 -25 -25 -23 -22 -22 -19 -21 -19 -16 -16 -16 -15 -15 -14 -14 -13 -13 -12 -11 -11 -11 -11 -12 -12 -10 -10 -11 -10 -10 -11 -13 -13 -12 -13 -12 -12 -13 -14 -12 -13 -13
-26 -26 -26 -26 -26 -25 -25 -23 -24 -23 -22 -20 -18 -18 -15 -14 -14 -15 -15 -15 -14 -12 -12 -12 -12 -11 -10 -9 -10 -10 -10 -10 -10 -10 -10 -12 -12 -12 -12 -13 -14 -14 -13 -12 -13
-27 -27 -27 -27 -27 -26 -25 -25 -25 -24 -23 -22 -20 -19 -18 -16 -16 -15 -15 -15 -15 -13 -13 -12 -12 -11 -11 -12 -12 -10 -10 -10 -10 -10 -10 -11 -13 -13 -13 -13 -13 -13 -13 -13 -13
-27 -27 -27 -27 -26 -26 -26 -26 -25 -25 -25 -23 -22 -20 -19 -18 -17 -16 -16 -15 -15 -14 -13 -13 -12 -12 -11 -11 -13 -10 -10 -10 -10 -11 -11 -11 -13 -13 -13 -13 -13 -13 -13 -13 -13
-27 -27 -27 -27 -27 -27 -26 -26 -26 -26 -25 -25 -24 -22 -20 -19 -17 -16 -15 -15 -15 -16 -15 -13 -12 -12 -12 -12 -11 -13 -10 -10 -10 -10 -10 -11 -10 -13 -13 -13 -13 -13 -12 -13 -12

GFSSW_500_temp_006.txt.gz
Temp
-11 -10 -10 -10 -11 -11 -11 -11 -12 -11 -12 -12 -11 -10 -10 -10 -10 -10 -10 -10 -10 -10 -10 -10 -10 -10 -10 -10 -10 -10 -10 -10 -11 -11 -11 -11 -11 -11 -11 -10 -11 -11 -11 -10 -11
-11 -10 -10 -10 -10 -11 -11 -11 -12 -12 -11 -12 -12 -11 -10 -10 -10 -10 -10 -10 -10 -10 -11 -11 -11 -11 -10 -10 -10 -10 -10 -10 -11 -11 -11 -11 -10 -10 -10 -12 -11 -12 -10 -11 -11
-10 -10 -10 -10 -10 -10 -11 -12 -12 -12 -12 -12 -12 -12 -11 -11 -11 -11 -10 -11 -11 -11 -11 -11 -11 -11 -11 -10 -10 -11 -10 -11 -11 -11 -11 -11 -11 -11 -12 -12 -12 -11 -11 -11 -11
-10 -11 -10 -10 -10 -10 -10 -12 -12 -12 -12 -12 -12 -12 -11 -12 -11 -10 -11 -11 -12 -12 -12 -12 -11 -11 -11 -11 -11 -11 -11 -11 -11 -11 -11 -11 -11 -11 -12 -12 -12 -11 -11 -12 -12
-11 -11 -11 -10 -10 -10 -10 -10 -11 -12 -12 -13 -12 -12 -12 -11 -10 -12 -11 -11 -11 -12 -12 -12 -12 -12 -12 -11 -11 -12 -11 -12 -11 -11 -10 -10 -10 -12 -11 -11 -12 -11 -12 -12 -12
-10 -11 -11 -11 -10 -10 -10 -10 -10 -11 -12 -12 -12 -12 -12 -10 -12 -12 -12 -11 -11 -11 -12 -12 -11 -12 -12 -11 -12 -11 -12 -12 -11 -10 -11 -11 -11 -11 -11 -11 -11 -11 -12 -12 -11
-10 -10 -10 -10 -10 -10 -10 -10 -10 -10 -10 -11 -11 -11 -10 -9 -11 -12 -12 -11 -11 -11 -12 -12 -11 -11 -11 -11 -11 -11 -11 -11 -11 -11 -10 -12 -10 -10 -11 -12 -12 -11 -12 -12 -11
-10 -10 -10 -10 -10 -10 -10 -11 -11 -11 -11 -11 -11 -11 -9 -10 -12 -11 -11 -10 -10 -10 -10 -11 -10 -11 -11 -11 -10 -11 -11 -11 -10 -11 -11 -12 -10 -11 -11 -12 -12 -12 -12 -12 -11
-10 -10 -10 -10 -10 -11 -11 -10 -10 -11 -11 -11 -11 -10 -8 -10 -11 -12 -11 -10 -10 -10 -10 -10 -10 -10 -10 -10 -9 -10 -9 -10 -10 -11 -11 -12 -11 -12 -11 -12 -12 -12 -12 -12 -12
-10 -10 -10 -10 -10 -10 -11 -11 -11 -10 -10 -10 -10 -9 -9 -10 -10 -11 -10 -10 -10 -10 -10 -10 -10 -10 -9 -9 -8 -9 -10 -10 -10 -11 -11 -12 -12 -12 -12 -12 -11 -12 -12 -12 -11
-10 -10 -10 -10 -10 -10 -11 -11 -11 -11 -10 -10 -10 -9 -10 -9 -10 -10 -10 -10 -10 -10 -9 -10 -10 -8 -9 -9 -10 -11 -11 -12 -12 -11 -11 -11 -11 -12 -12 -12 -11 -12 -13 -13 -12
-10 -10 -10 -10 -10 -11 -11 -10 -11 -11 -10 -10 -10 -9 -10 -10 -9 -10 -10 -9 -9 -9 -10 -10 -8 -9 -9 -10 -10 -11 -11 -11 -12 -12 -12 -12 -12 -12 -12 -11 -11 -12 -12 -12 -12
-10 -10 -10 -10 -10 -11 -11 -12 -12 -11 -10 -9 -9 -9 -9 -10 -9 -9 -9 -9 -9 -9 -9 -9 -9 -10 -10 -10 -10 -10 -10 -11 -12 -12 -12 -12 -12 -12 -12 -12 -13 -13 -12 -11 -11
-11 -10 -10 -10 -10 -11 -11 -12 -12 -11 -10 -9 -9 -8 -9 -9 -9 -9 -9 -9 -9 -8 -9 -9 -10 -10 -10 -10 -11 -10 -11 -12 -12 -12 -12 -12 -11 -12 -12 -12 -12 -13 -12 -11 -11
-15 -14 -13 -12 -11 -11 -11 -12 -12 -12 -12 -9 -9 -9 -10 -9 -9 -9 -10 -9 -9 -9 -9 -8 -9 -10 -10 -10 -10 -10 -13 -12 -12 -13 -13 -11 -11 -10 -12 -12 -12 -13 -12 -11 -11
-20 -19 -17 -16 -14 -13 -12 -12 -13 -14 -11 -9 -11 -9 -9 -9 -9 -10 -10 -10 -10 -10 -9 -9 -10 -10 -10 -12 -12 -12 -13 -12 -13 -13 -11 -11 -11 -10 -12 -12 -12 -12 -12 -12 -12
-21 -20 -20 -20 -19 -18 -15 -15 -15 -13 -10 -10 -12 -11 -10 -9 -10 -10 -10 -10 -9 -9 -8 -9 -9 -9 -10 -13 -13 -12 -13 -12 -13 -12 -9 -11 -11 -11 -12 -12 -12 -12 -13 -12 -12
-23 -23 -23 -23 -23 -21 -20 -20 -15 -10 -10 -11 -13 -14 -11 -11 -10 -11 -10 -10 -10 -10 -10 -9 -9 -9 -9 -9 -11 -12 -12 -11 -12 -11 -11 -11 -11 -11 -11 -11 -12 -11 -12 -11 -12
-24 -23 -23 -24 -24 -24 -23 -22 -15 -12 -12 -13 -15 -15 -15 -13 -12 -11 -11 -10 -10 -10 -10 -10 -9 -10 -10 -11 -12 -12 -11 -10 -11 -12 -12 -11 -11 -12 -12 -11 -11 -11 -12 -12 -12
-24 -23 -23 -22 -23 -24 -24 -23 -17 -14 -15 -16 -15 -15 -14 -15 -15 -14 -11 -10 -10 -10 -10 -10 -10 -10 -10 -12 -12 -11 -11 -11 -11 -11 -11 -12 -11 -11 -11 -12 -12 -12 -12 -12 -12
-24 -24 -23 -22 -23 -24 -23 -21 -21 -19 -18 -18 -16 -15 -14 -14 -15 -15 -12 -11 -10 -10 -10 -11 -12 -11 -12 -12 -10 -10 -11 -12 -11 -12 -12 -12 -11 -11 -11 -12 -11 -11 -11 -12 -12
-25 -25 -25 -24 -24 -24 -23 -24 -24 -21 -20 -18 -18 -15 -14 -15 -14 -14 -14 -12 -11 -11 -10 -10 -11 -12 -12 -12 -11 -10 -10 -12 -10 -11 -11 -12 -11 -12 -12 -11 -11 -12 -11 -11 -12
-26 -25 -25 -25 -25 -25 -25 -24 -23 -23 -22 -19 -19 -16 -15 -15 -14 -14 -14 -14 -12 -12 -10 -10 -11 -11 -12 -12 -12 -12 -10 -12 -12 -12 -12 -11 -11 -12 -12 -12 -11 -11 -11 -11 -12
-26 -26 -25 -25 -25 -25 -25 -25 -24 -23 -22 -21 -19 -18 -16 -15 -14 -14 -14 -14 -14 -14 -11 -11 -11 -11 -10 -11 -11 -10 -10 -10 -10 -11 -11 -10 -12 -12 -12 -11 -12 -11 -10 -12 -12
-26 -26 -26 -26 -26 -26 -26 -25 -25 -24 -24 -23 -20 -19 -17 -16 -15 -14 -15 -14 -14 -14 -14 -13 -11 -11 -11 -11 -12 -12 -10 -10 -10 -10 -10 -10 -11 -12 -12 -12 -12 -13 -12 -12 -12
-26 -26 -26 -27 -27 -26 -26 -26 -25 -25 -25 -23 -21 -20 -18 -16 -16 -14 -14 -14 -13 -14 -14 -14 -12 -12 -11 -11 -12 -12 -11 -10 -10 -11 -10 -10 -10 -11 -12 -11 -13 -13 -12 -11 -12
-26 -27 -27 -27 -26 -26 -26 -26 -25 -25 -25 -24 -22 -20 -18 -16 -16 -16 -14 -14 -13 -14 -14 -15 -12 -12 -12 -11 -12 -12 -12 -11 -10 -10 -11 -9 -10 -11 -12 -12 -13 -13 -13 -12 -12

GFSSW_500_temp_009.txt.gz
Temp
-11 -10 -11 -11 -10 -10 -11 -11 -11 -11 -11 -12 -12 -11 -11 -11 -11 -11 -10 -11 -11 -11 -10 -10 -10 -10 -10 -10 -10 -10 -10 -10 -10 -10 -11 -11 -11 -11 -11 -11 -11 -11 -10 -9 -9
-11 -11 -11 -10 -10 -10 -10 -10 -11 -11 -12 -12 -12 -12 -11 -11 -11 -11 -10 -10 -10 -11 -11 -11 -11 -11 -11 -11 -11 -11 -11 -10 -10 -10 -11 -11 -10 -11 -11 -11 -11 -12 -10 -10 -11
-11 -11 -11 -11 -10 -10 -10 -10 -10 -10 -11 -11 -12 -12 -12 -12 -11 -11 -11 -11 -11 -11 -11 -12 -11 -11 -11 -11 -12 -12 -11 -10 -10 -10 -11 -11 -11 -11 -11 -11 -11 -11 -11 -11 -12
-10 -11 -11 -12 -11 -11 -10 -10 -10 -10 -10 -12 -12 -12 -12 -12 -11 -11 -11 -11 -11 -11 -11 -11 -12 -12 -12 -11 -12 -12 -11 -10 -10 -10 -11 -10 -11 -10 -11 -11 -12 -12 -11 -11 -12
-11 -11 -11 -12 -11 -11 -11 -11 -11 -11 -11 -11 -12 -12 -12 -11 -9 -12 -12 -12 -11 -12 -12 -12 -12 -12 -12 -12 -12 -12 -11 -11 -11 -11 -11 -11 -11 -10 -10 -11 -12 -12 -11 -11 -12
-10 -10 -10 -10 -11 -12 -11 -11 -11 -11 -10 -10 -11 -12 -12 -8 -11 -12 -12 -12 -11 -11 -12 -12 -12 -12 -11 -12 -12 -11 -11 -10 -11 -11 -12 -11 -11 -10 -10 -12 -12 -11 -11 -11 -12
-10 -10 -10 -10 -10 -11 -11 -11 -10 -11 -11 -10 -10 -11 -9 -8 -11 -12 -12 -12 -12 -12 -12 -12 -12 -12 -12 -11 -11 -11 -10 -11 -11 -11 -10 -11 -10 -10 -12 -11 -12 -11 -12 -12 -11
-10 -11 -10 -10 -10 -10 -10 -10 -10 -10 -10 -10 -10 -10 -9 -10 -11 -11 -12 -12 -12 -12 -12 -12 -12 -11 -11 -11 -10 -10 -10 -8 -9 -10 -10 -12 -10 -12 -12 -11 -12 -12 -12 -11 -12
-10 -10 -10 -11 -10 -10 -10 -10 -11 -10 -10 -10 -10 -10 -8 -9 -10 -12 -12 -12 -12 -12 -12 -12 -12 -11 -11 -10 -9 -9 -8 -9 -10 -10 -10 -12 -11 -12 -12 -12 -12 -12 -13 -12 -12
-9 -10 -10 -10 -10 -11 -11 -11 -11 -10 -11 -10 -10 -9 -8 -10 -10 -11 -12 -11 -12 -11 -11 -11 -11 -10 -9 -9 -7 -9 -10 -10 -10 -11 -11 -12 -11 -11 -12 -12 -11 -12 -12 -12 -12
-10 -10 -10 -10 -10 -10 -10 -11 -12 -11 -10 -10 -9 -9 -10 -9 -10 -10 -11 -12 -12 -11 -10 -9 -10 -8 -9 -9 -10 -10 -11 -10 -10 -10 -12 -11 -11 -12 -12 -11 -11 -12 -12 -12 -13
-10 -10 -10 -10 -10 -10 -10 -11 -12 -11 -10 -10 -9 -9 -10 -11 -9 -10 -10 -11 -11 -10 -10 -10 -8 -9 -10 -10 -10 -10 -11 -10 -10 -10 -12 -11 -12 -12 -12 -11 -12 -12 -12 -12 -11
-12 -11 -11 -11 -11 -11 -10 -11 -12 -11 -10 -10 -9 -9 -10 -11 -10 -9 -10 -10 -10 -10 -10 -9 -8 -10 -10 -10 -10 -10 -10 -11 -11 -11 -12 -12 -12 -11 -11 -12 -12 -12 -12 -12 -11
-15 -15 -15 -14 -13 -12 -12 -12 -11 -11 -10 -8 -9 -8 -10 -10 -9 -10 -10 -10 -10 -9 -10 -9 -10 -10 -10 -10 -10 -10 -11 -11 -11 -11 -11 -12 -11 -11 -10 -11 -12 -12 -12 -12 -11
-20 -20 -20 -19 -17 -16 -14 -13 -13 -12 -11 -9 -9 -10 -11 -10 -9 -10 -10 -10 -9 -9 -9 -8 -9 -9 -9 -9 -10 -10 -11 -11 -11 -12 -12 -11 -12 -10 -11 -11 -11 -11 -11 -11 -11
-22 -22 -22 -22 -21 -21 -17 -15 -14 -13 -11 -9 -10 -9 -10 -10 -10 -11 -11 -11 -11 -10 -10 -9 -10 -10 -10 -10 -10 -11 -11 -11 -13 -12 -12 -11 -11 -10 -11 -11 -12 -11 -11 -12 -12
-22 -22 -22 -22 -22 -21 -20 -19 -18 -13 -11 -10 -13 -13 -12 -11 -11 -11 -11 -11 -9 -9 -9 -9 -9 -9 -10 -10 -11 -12 -13 -12 -13 -12 -9 -11 -12 -11 -12 -12 -12 -12 -11 -11 -11
-23 -23 -23 -24 -24 -24 -23 -22 -19 -12 -12 -12 -15 -15 -12 -13 -13 -13 -12 -11 -11 -10 -10 -9 -9 -9 -9 -9 -9 -10 -13 -12 -12 -11 -10 -12 -11 -10 -11 -12 -12 -11 -11 -11 -11
-24 -24 -24 -23 -23 -24 -24 -23 -19 -15 -14 -16 -16 -15 -16 -16 -16 -15 -13 -11 -10 -10 -9 -9 -9 -10 -10 -10 -10 -11 -11 -11 -11 -12 -12 -12 -12 -12 -11 -12 -12 -11 -10 -11 -12
-24 -24 -23 -24 -23 -23 -23 -21 -21 -20 -20 -20 -17 -16 -16 -16 -15 -15 -15 -11 -11 -11 -11 -10 -10 -10 -10 -11 -10 -11 -11 -13 -12 -12 -11 -10 -11 -11 -12 -12 -11 -10 -11 -11 -11
-24 -24 -25 -25 -25 -23 -22 -22 -23 -24 -24 -22 -19 -17 -16 -16 -15 -15 -12 -12 -12 -11 -11 -11 -11 -10 -11 -10 -10 -11 -13 -13 -12 -11 -11 -11 -11 -11 -12 -12 -11 -11 -11 -12 -12
-25 -25 -25 -25 -25 -25 -23 -24 -24 -25 -25 -22 -19 -16 -17 -16 -15 -14 -11 -10 -13 -12 -12 -11 -11 -11 -10 -10 -11 -11 -12 -12 -11 -11 -11 -12 -12 -11 -11 -11 -11 -11 -12 -11 -11
-25 -25 -25 -25 -25 -25 -25 -25 -24 -24 -24 -25 -23 -18 -18 -16 -15 -14 -13 -14 -15 -15 -12 -12 -12 -11 -11 -11 -12 -12 -11 -12 -12 -12 -11 -11 -11 -12 -12 -12 -11 -11 -12 -12 -11
-25 -26 -26 -25 -25 -25 -25 -25 -25 -25 -24 -24 -24 -23 -19 -16 -15 -14 -14 -16 -15 -15 -13 -14 -12 -11 -10 -11 -10 -12 -11 -11 -12 -10 -10 -10 -11 -12 -12 -11 -11 -11 -11 -12 -11
-26 -26 -26 -26 -26 -26 -26 -25 -25 -25 -25 -25 -23 -23 -20 -17 -15 -15 -15 -15 -15 -14 -14 -14 -12 -12 -11 -11 -12 -12 -10 -10 -10 -10 -10 -10 -11 -11 -11 -12 -11 -11 -10 -12 -12
-26 -26 -26 -26 -26 -26 -26 -26 -25 -25 -25 -24 -24 -23 -21 -18 -17 -15 -15 -15 -15 -14 -14 -14 -12 -12 -12 -11 -11 -12 -11 -11 -11 -11 -10 -10 -11 -12 -12 -12 -11 -11 -10 -10 -13
-27 -27 -27 -27 -27 -26 -26 -26 -25 -25 -25 -25 -25 -23 -22 -20 -18 -16 -15 -15 -15 -15 -14 -14 -11 -13 -12 -12 -12 -11 -12 -11 -10 -11 -11 -10 -10 -11 -12 -12 -12 -12 -10 -10 -11

GFSSW_500_temp_012.txt.gz
Temp
-10 -10 -10 -10 -10 -10 -10 -10 -11 -11 -11 -11 -11 -11 -11 -11 -11 -11 -11 -11 -11 -11 -11 -11 -11 -11 -12 -11 -11 -10 -10 -10 -10 -11 -11 -11 -11 -11 -11 -11 -11 -11 -10 -10 -10
-10 -10 -10 -10 -10 -10 -10 -11 -11 -11 -11 -11 -11 -11 -12 -12 -11 -11 -11 -12 -11 -12 -11 -11 -12 -12 -11 -11 -11 -11 -11 -9 -11 -11 -11 -11 -11 -11 -11 -11 -12 -12 -11 -11 -10
-10 -10 -10 -10 -10 -11 -11 -11 -11 -11 -11 -11 -10 -11 -11 -11 -11 -11 -12 -12 -12 -12 -11 -11 -12 -12 -11 -12 -11 -11 -10 -10 -10 -11 -11 -11 -11 -11 -11 -11 -11 -10 -10 -11 -11
-10 -10 -10 -10 -10 -10 -10 -10 -10 -10 -11 -11 -11 -11 -11 -10 -10 -11 -12 -12 -12 -13 -12 -11 -11 -12 -11 -11 -11 -11 -11 -10 -10 -11 -11 -11 -11 -11 -11 -10 -10 -11 -11 -11 -11
-9 -9 -10 -10 -11 -10 -11 -10 -11 -11 -11 -10 -10 -11 -11 -9 -8 -11 -12 -12 -12 -13 -12 -12 -12 -12 -12 -12 -12 -11 -11 -11 -10 -11 -11 -11 -10 -10 -10 -11 -11 -11 -11 -12 -12
-9 -9 -9 -10 -10 -11 -10 -10 -11 -11 -11 -10 -10 -10 -9 -8 -10 -12 -12 -12 -12 -12 -13 -12 -12 -12 -12 -12 -12 -11 -11 -10 -10 -11 -10 -11 -10 -10 -10 -12 -12 -11 -12 -12 -12
-10 -10 -9 -9 -10 -10 -10 -10 -11 -11 -11 -10 -10 -10 -9 -7 -10 -11 -11 -12 -13 -12 -12 -13 -13 -12 -12 -12 -12 -11 -11 -10 -9 -10 -9 -11 -9 -9 -11 -12 -12 -12 -12 -13 -12
-9 -10 -10 -10 -10 -9 -9 -10 -10 -11 -11 -11 -10 -10 -7 -9 -10 -10 -12 -12 -12 -13 -13 -13 -13 -12 -12 -12 -12 -11 -10 -7 -9 -10 -10 -12 -8 -11 -11 -12 -11 -12 -12 -12 -12
-9 -9 -9 -10 -10 -10 -10 -10 -10 -10 -10 -11 -10 -9 -8 -9 -10 -12 -12 -12 -13 -13 -13 -13 -13 -12 -12 -12 -11 -10 -8 -9 -9 -11 -11 -12 -9 -11 -11 -11 -11 -12 -12 -12 -11
-10 -10 -10 -10 -10 -10 -10 -10 -10 -10 -10 -10 -10 -9 -8 -10 -11 -11 -11 -12 -13 -13 -12 -13 -12 -12 -12 -11 -9 -9 -10 -10 -10 -11 -11 -11 -11 -11 -11 -11 -11 -11 -12 -11 -11
-10 -11 -11 -10 -10 -10 -11 -11 -11 -11 -10 -9 -9 -9 -9 -10 -10 -11 -11 -11 -12 -12 -11 -12 -11 -10 -10 -10 -11 -11 -10 -9 -10 -10 -10 -10 -9 -11 -12 -11 -11 -12 -11 -11 -12
-12 -12 -12 -13 -12 -12 -11 -11 -11 -11 -10 -10 -9 -9 -10 -10 -10 -10 -11 -11 -11 -10 -11 -12 -8 -11 -11 -11 -11 -10 -10 -9 -10 -11 -10 -10 -9 -11 -12 -12 -12 -12 -11 -12 -13
-16 -16 -15 -15 -15 -14 -13 -13 -12 -11 -10 -10 -10 -9 -10 -11 -10 -10 -10 -11 -11 -11 -11 -10 -9 -10 -11 -11 -10 -9 -9 -10 -10 -11 -11 -10 -10 -10 -12 -12 -11 -11 -11 -12 -12
-21 -21 -21 -20 -18 -17 -16 -15 -13 -12 -11 -10 -11 -10 -10 -11 -10 -11 -10 -10 -11 -10 -11 -10 -10 -9 -10 -10 -10 -9 -10 -10 -11 -11 -11 -12 -10 -11 -11 -11 -12 -12 -11 -11 -12
-22 -22 -23 -22 -23 -22 -19 -19 -16 -14 -12 -12 -12 -11 -12 -11 -10 -11 -12 -10 -10 -10 -11 -8 -9 -9 -9 -9 -10 -9 -11 -11 -11 -11 -11 -12 -11 -10 -11 -10 -10 -10 -11 -11 -12
-23 -22 -22 -22 -23 -22 -22 -22 -20 -17 -13 -15 -13 -11 -11 -12 -11 -12 -13 -11 -11 -12 -11 -10 -10 -10 -9 -10 -10 -10 -11 -11 -12 -12 -12 -11 -12 -11 -11 -10 -10 -10 -11 -12 -12
-24 -24 -23 -23 -23 -23 -22 -22 -22 -19 -15 -16 -15 -13 -13 -12 -12 -13 -13 -12 -10 -10 -10 -11 -10 -10 -10 -10 -10 -10 -11 -12 -12 -11 -8 -12 -12 -11 -12 -11 -11 -10 -11 -12 -12
-24 -24 -24 -24 -24 -24 -24 -24 -23 -19 -18 -19 -18 -16 -16 -14 -13 -14 -13 -12 -11 -11 -10 -10 -10 -9 -9 -9 -10 -10 -11 -10 -10 -10 -9 -12 -12 -11 -12 -11 -10 -11 -11 -12 -12
-24 -24 -24 -23 -24 -24 -24 -23 -22 -22 -22 -21 -18 -17 -16 -15 -14 -14 -12 -12 -11 -10 -10 -10 -9 -10 -10 -10 -10 -11 -9 -10 -11 -12 -12 -11 -12 -11 -11 -11 -11 -11 -12 -12 -12
-24 -24 -24 -24 -24 -24 -24 -24 -23 -23 -24 -22 -20 -19 -19 -16 -15 -14 -12 -12 -12 -12 -11 -11 -10 -10 -11 -11 -11 -10 -10 -11 -11 -12 -11 -11 -11 -10 -10 -11 -11 -11 -12 -12 -11
-24 -25 -25 -26 -26 -26 -25 -24 -24 -24 -25 -24 -21 -20 -18 -17 -16 -15 -11 -12 -12 -13 -13 -12 -11 -11 -12 -10 -9 -10 -11 -12 -12 -11 -11 -11 -10 -11 -12 -12 -12 -12 -12 -11 -12
-25 -25 -26 -26 -26 -25 -26 -25 -24 -24 -25 -24 -22 -21 -19 -18 -17 -15 -13 -12 -12 -12 -12 -11 -12 -12 -10 -10 -11 -11 -11 -10 -10 -10 -11 -11 -11 -11 -11 -11 -12 -12 -11 -12 -11
-26 -26 -26 -26 -26 -26 -26 -26 -25 -25 -25 -25 -23 -23 -22 -18 -17 -15 -14 -14 -12 -12 -12 -13 -12 -12 -11 -11 -11 -11 -11 -11 -10 -11 -10 -12 -11 -11 -11 -11 -11 -11 -12 -12 -11
-26 -26 -26 -26 -26 -26 -26 -26 -26 -25 -25 -25 -24 -23 -24 -19 -17 -16 -16 -15 -13 -12 -12 -12 -11 -11 -10 -10 -10 -10 -11 -11 -11 -10 -10 -11 -11 -11 -10 -11 -11 -12 -12 -12 -11
-26 -26 -26 -26 -26 -26 -26 -26 -26 -25 -25 -25 -24 -23 -23 -21 -18 -16 -17 -16 -14 -13 -13 -11 -10 -10 -11 -11 -11 -11 -10 -10 -11 -10 -10 -10 -10 -11 -11 -11 -12 -11 -11 -12 -12
-27 -27 -27 -26 -26 -26 -26 -26 -26 -26 -25 -25 -25 -24 -23 -22 -20 -17 -17 -16 -16 -15 -13 -11 -10 -11 -11 -12 -12 -11 -11 -11 -11 -11 -10 -10 -10 -11 -11 -12 -11 -11 -10 -11 -11
-27 -27 -27 -27 -27 -27 -26 -26 -26 -26 -26 -25 -25 -25 -24 -22 -21 -19 -16 -16 -16 -16 -14 -12 -11 -11 -10 -12 -12 -12 -11 -11 -12 -11 -11 -10 -9 -11 -11 -11 -11 -11 -9 -10 -11